Dewpoint
52 52 53 54 53 52 53 54 55 56 57 58 59 61 62 64 66 66 65 64 62 62 63 65 67 66 65 64 64 64 63 64 65
52 51 52 50 51 52 52 52 53 54 54 54 55 56 59 58 60 65 66 65 65 62 63 64 66 66 66 65 65 63 63 63 64
52 48 48 48 49 50 51 52 53 53 53 53 54 55 58 57 54 57 64 66 66 66 63 64 65 65 65 66 65 64 63 63 63
50 48 48 48 49 48 48 50 48 49 49 47 49 50 54 57 54 53 56 62 63 66 65 65 65 64 63 64 66 65 64 65 64
46 49 49 49 46 45 44 44 45 45 43 44 45 46 45 44 47 51 53 53 53 56 64 65 65 65 64 65 65 65 64 65 64
38 44 45 44 44 43 43 43 43 42 40 42 43 43 38 38 41 44 49 52 52 53 56 63 65 66 65 65 66 65 65 65 64
39 38 41 41 42 41 42 42 42 39 38 38 40 38 37 36 38 40 47 51 52 52 54 61 63 65 66 66 66 66 66 66 65
36 36 35 35 36 36 37 37 38 39 39 40 40 40 39 38 38 39 46 51 52 55 58 63 64 65 67 66 66 66 66 66 66
35 34 34 34 34 36 37 38 38 40 40 41 42 42 42 41 39 39 42 49 54 56 60 62 63 62 63 63 64 64 65 66 65
36 34 34 33 34 37 37 38 39 40 41 42 43 43 43 43 41 37 41 48 54 53 51 51 57 60 61 62 63 61 65 65 64
35 34 34 34 36 38 38 38 39 40 41 42 43 44 44 44 42 40 42 47 51 53 50 52 52 54 59 58 59 62 64 66 64
34 34 35 35 37 38 37 38 40 40 41 42 43 44 45 44 44 43 44 46 49 53 52 52 52 52 53 56 59 61 61 59 58
35 35 35 36 38 37 37 38 39 39 41 41 42 44 45 45 45 45 44 45 46 48 53 52 52 52 51 52 55 57 57 56 55
36 36 36 37 37 36 37 38 39 38 40 40 43 45 46 46 46 46 45 47 47 48 51 51 53 53 52 51 52 52 55 57 58
38 38 37 37 36 35 36 37 39 39 40 40 43 46 46 46 46 46 46 46 46 46 49 50 51 53 52 53 53 54 54 53 53
39 38 37 37 36 35 36 38 38 38 40 41 43 45 45 45 46 46 44 43 45 45 45 46 47 48 52 50 50 50 50 50 51
40 39 39 37 36 35 36 38 37 38 40 41 41 41 43 43 44 43 41 40 41 40 39 39 44 44 47 49 50 49 49 49 50
43 40 39 37 36 35 36 38 37 37 39 40 40 39 40 41 42 41 40 40 39 39 38 37 40 44 46 49 48 49 48 49 50
43 42 39 37 37 35 36 38 37 38 37 39 40 41 42 39 38 41 40 39 39 38 38 37 39 41 44 47 47 49 48 48 48
43 43 40 37 36 36 36 37 36 38 39 39 39 39 39 42 40 38 38 37 38 38 39 39 38 42 45 47 48 48 46 45 45
Wind_Speed
8 8 9 10 12 12 13 13 13 14 14 14 14 14 15 15 11 11 12 11 13 15 17 16 15 14 14 14 13 13 12 12 12
7 8 8 10 11 11 12 13 14 14 14 15 15 15 15 13 12 11 12 14 17 18 18 20 18 16 16 16 16 15 15 14 12
6 7 7 9 10 11 12 13 12 12 14 16 16 16 15 12 14 12 11 13 21 20 21 24 21 20 19 18 17 17 17 16 15
7 10 8 7 9 12 12 12 13 14 14 15 16 17 16 12 12 14 12 14 19 21 23 23 24 22 21 20 19 18 17 18 17
9 10 10 8 9 10 11 12 13 14 14 15 15 15 14 13 13 12 13 16 20 20 19 26 25 26 23 22 20 20 19 19 18
8 9 10 10 10 10 10 11 13 14 13 15 15 15 12 13 13 12 14 15 18 20 19 23 27 29 26 24 23 22 21 21 20
7 9 11 11 10 9 11 13 12 13 13 14 15 13 13 13 13 12 14 15 17 19 20 21 25 24 30 29 26 24 23 23 21
7 8 9 9 10 9 11 12 12 13 13 15 15 15 14 13 12 13 15 15 16 16 17 8 10 20 31 31 26 24 24 24 22
7 8 8 9 8 9 10 10 12 12 14 14 14 15 14 13 13 12 13 13 14 11 10 7 16 13 18 19 17 17 21 19 17
5 6 7 7 8 8 11 10 11 12 13 14 14 15 15 13 12 11 12 11 10 7 6 7 9 7 8 13 13 22 19 20 15
3 5 7 7 8 8 9 10 11 12 12 14 14 15 13 11 12 10 8 9 7 4 3 5 5 5 12 7 9 16 14 10 9
3 4 7 7 8 9 10 10 10 12 13 14 14 13 12 11 11 11 7 6 5 4 4 6 7 8 2 7 8 7 7 3 7
2 4 6 7 8 8 10 10 12 13 13 16 15 13 10 11 6 7 8 5 4 6 7 8 8 5 1 2 2 3 4 4 3
2 3 5 6 7 8 8 9 8 13 16 17 14 10 8 7 5 5 5 5 5 5 7 9 10 9 7 4 2 1 4 6 5
3 2 4 4 6 8 9 9 9 9 14 15 11 6 7 6 7 6 9 11 11 11 9 8 8 10 11 10 12 8 8 7 6
4 3 3 3 4 5 6 5 8 8 13 9 9 5 7 12 12 10 11 13 12 13 12 10 8 7 10 10 11 7 9 6 6
5 4 2 2 3 5 5 6 6 4 9 7 3 6 4 7 12 10 10 13 11 13 12 12 8 5 5 6 7 9 8 7 7
5 5 3 2 1 3 3 3 5 6 4 7 4 4 3 6 4 7 10 10 10 10 12 10 8 4 3 5 6 8 7 8 7
5 5 4 2 1 2 1 1 2 2 5 4 6 0 1 3 6 4 5 12 10 11 12 9 6 3 1 4 6 7 7 8 7
6 3 4 2 2 2 2 1 0 1 0 0 2 2 2 0 1 6 9 10 11 12 10 7 6 5 4 6 5 6 7 7 8
Wind_Direction
11 12 6 2 355 347 343 340 337 335 335 333 335 338 338 341 303 265 253 249 257 260 250 241 238 208 203 201 197 193 190 189 183
13 10 5 356 357 356 349 345 339 336 334 331 329 328 332 332 324 302 274 258 253 254 255 240 235 228 218 213 209 205 203 197 194
353 0 349 353 357 355 349 347 343 343 340 337 333 332 329 320 312 305 295 276 273 257 251 247 231 234 226 220 213 212 206 206 203
4 349 348 346 350 348 346 344 349 345 344 344 341 336 334 326 314 301 290 289 290 282 258 255 238 230 230 223 216 212 212 212 205
20 21 19 15 358 360 357 351 349 346 344 341 340 337 336 331 319 312 292 292 293 289 285 260 253 237 227 223 219 217 215 211 215
23 12 10 8 13 6 3 355 349 344 343 338 335 333 327 324 318 311 301 299 296 289 278 273 261 244 228 219 217 216 216 216 219
23 13 6 6 9 8 5 354 350 348 343 338 337 331 322 315 314 311 304 304 305 298 283 263 267 255 233 215 211 214 215 214 215
20 11 2 356 0 0 358 353 351 347 344 337 329 323 319 313 308 309 308 304 311 312 308 311 271 257 255 225 207 216 224 222 220
17 6 355 356 353 349 353 348 343 342 337 329 322 316 311 309 313 304 306 304 311 326 0 21 51 29 348 346 7 265 235 226 223
6 357 354 347 346 349 345 341 342 337 333 327 323 313 309 317 311 312 313 305 312 334 1 66 90 81 353 1 327 299 260 239 226
349 346 350 350 349 339 338 338 337 333 333 328 325 309 308 315 319 318 324 323 321 330 359 37 63 139 152 156 264 289 344 198 133
322 338 347 346 341 339 346 343 338 338 336 329 318 307 316 314 330 329 336 3 24 28 47 67 55 56 330 162 201 237 267 4 58
289 328 344 345 345 345 347 342 337 341 339 328 312 310 321 310 344 341 332 8 39 47 56 60 65 62 43 41 136 275 314 338 4
259 318 342 351 347 347 347 339 344 339 341 330 309 329 338 334 357 355 359 25 54 56 56 66 61 60 68 82 120 211 72 71 74
243 296 341 352 349 347 351 344 338 334 341 329 316 5 21 31 26 30 44 38 39 42 47 63 59 59 74 80 78 83 76 70 66
239 264 325 341 350 343 343 336 346 356 349 349 344 353 34 50 40 45 50 52 48 46 43 33 31 45 68 68 63 60 56 48 51
246 245 287 312 333 349 3 16 351 353 13 5 308 355 342 23 37 51 48 40 45 44 36 33 16 20 43 75 79 59 42 36 44
253 238 242 268 279 337 351 358 27 10 340 24 25 354 332 331 353 46 42 25 29 18 7 11 17 11 52 90 83 71 54 44 40
289 245 220 240 249 291 328 12 46 50 2 347 13 109 253 344 328 334 358 4 9 5 346 340 358 18 153 135 111 86 70 50 29
336 231 214 245 256 270 265 263 305 122 268 303 334 349 350 122 356 300 327 344 345 357 356 349 347 359 95 99 91 73 49 32 21